Weather History for KICL - December, 2013

Change the Weather History Date:

Friday, December 13, 2013

  Actual Average Record
Temperature  
Mean Temperature 22 °F -  
Max Temperature 35 °F 38 °F 55 °F (1998)
Min Temperature 8 °F 19 °F 1 °F (2010)
Degree Days  
Heating Degree Days 44    
Moisture  
Dew Point 20 °F    
Average Humidity 87    
Maximum Humidity 93    
Minimum Humidity 75    
Precipitation  
Precipitation 0.00 in - - ()
Sea Level Pressure  
Sea Level Pressure 29.99 in    
Wind  
Wind Speed 3 mph (NE)    
Max Wind Speed 17 mph    
Max Gust Speed 20 mph    
Visibility 8 miles    
Events      
Averages and records for this station are not official NWS values.
T = Trace of Precipitation, MM = Missing Value Source: NWS Daily Summary

Daily Weather History Graph

Daily Weather History Graph

Search for Another Location

Airport or City:

Trip Planner

Search our weather history database for the weather conditions in past years. The results will help you decide how hot, cold, wet, or windy it might be!

Date:

Astronomy

Dec. 13, 2013 Rise Set
Actual Time 7:35 AM CST 4:53 PM CST
Civil Twilight 7:04 AM CST 5:24 PM CST
Nautical Twilight 6:30 AM CST 5:58 PM CST
Astronomical Twilight 5:57 AM CST 6:31 PM CST
Moon 2:37 PM CST (12/13) 3:58 AM CST (12/13)
Length of Visible Light 10h 19m
Length of Day
9h 17m
Waxing Gibbous, 88% of the Moon is Illuminated
Dec 13
Waxing Gibbous
Dec 17
Full
Dec 25
Last Quarter
Jan 1
New
Jan 7
First Quarter

Hourly Weather History & Observations

Time (CST) Temp. Windchill Dew Point Humidity Pressure Visibility Wind Dir Wind Speed Gust Speed Precip Events Conditions
12:15 AM 12.2 °F 6.1 °F 10.4 °F 92% 30.12 in 10.0 mi SSW 3.5 mph - N/A   Clear
12:35 AM 12.2 °F - 10.4 °F 92% 30.11 in 10.0 mi Calm Calm - N/A   Clear
12:55 AM 12.2 °F - 10.4 °F 92% 30.11 in 10.0 mi Calm Calm - N/A   Clear
1:15 AM 10.4 °F - 8.6 °F 92% 30.10 in 10.0 mi Calm Calm - N/A   Clear
1:35 AM 12.2 °F - 8.6 °F 85% 30.10 in 10.0 mi Calm Calm - N/A   Clear
1:55 AM 10.4 °F - 8.6 °F 92% 30.09 in 10.0 mi Calm Calm - N/A   Clear
2:15 AM 10.4 °F - 8.6 °F 92% 30.08 in 10.0 mi Calm Calm - N/A   Clear
2:35 AM 12.2 °F - 10.4 °F 92% 30.08 in 10.0 mi Calm Calm - N/A   Clear
2:55 AM 10.4 °F - 8.6 °F 92% 30.07 in 10.0 mi Calm Calm - N/A   Clear
3:15 AM 14.0 °F 5.1 °F 12.2 °F 93% 30.06 in 10.0 mi SSW 5.8 mph - N/A   Clear
3:35 AM 15.8 °F 8.6 °F 14.0 °F 93% 30.05 in 10.0 mi SSW 4.6 mph - N/A   Clear
3:55 AM 15.8 °F 10.2 °F 12.2 °F 86% 30.05 in 10.0 mi SSW 3.5 mph - N/A   Clear
4:15 AM 15.8 °F - 14.0 °F 93% 30.04 in 10.0 mi Calm Calm - N/A   Clear
4:35 AM 15.8 °F - 14.0 °F 93% 30.04 in 10.0 mi Calm Calm - N/A   Clear
4:55 AM 15.8 °F - 14.0 °F 93% 30.03 in 10.0 mi Calm Calm - N/A   Clear
5:15 AM 17.6 °F - 15.8 °F 93% 30.02 in 10.0 mi Calm Calm - N/A   Clear
5:35 AM 12.2 °F - 10.4 °F 92% 30.01 in 10.0 mi Calm Calm - N/A   Clear
5:55 AM 8.6 °F - 6.8 °F 92% 30.01 in 10.0 mi Calm Calm - N/A   Clear
6:15 AM 8.6 °F - 6.8 °F 92% 30.01 in 10.0 mi Calm Calm - N/A   Clear
6:35 AM 8.6 °F - 6.8 °F 92% 30.00 in 10.0 mi Calm Calm - N/A   Clear
6:55 AM 12.2 °F - 10.4 °F 92% 30.00 in 10.0 mi Calm Calm - N/A   Clear
7:15 AM 8.6 °F 2.0 °F 6.8 °F 92% 30.01 in 10.0 mi SSW 3.5 mph - N/A   Clear
7:35 AM 10.4 °F - 8.6 °F 92% 30.00 in 9.0 mi Calm Calm - N/A   Clear
7:55 AM 10.4 °F - 8.6 °F 92% 30.00 in 9.0 mi Calm Calm - N/A   Clear
8:15 AM 10.4 °F - 8.6 °F 92% 30.01 in 7.0 mi Calm Calm - N/A   Clear
8:35 AM 10.4 °F - 8.6 °F 92% 30.00 in 7.0 mi Calm Calm - N/A   Clear
8:55 AM 12.2 °F - 10.4 °F 92% 30.00 in 8.0 mi Calm Calm - N/A   Clear
9:15 AM 14.0 °F - 12.2 °F 93% 30.00 in 8.0 mi Calm Calm - N/A   Clear
9:35 AM 15.8 °F - 14.0 °F 93% 30.00 in 7.0 mi Calm Calm - N/A   Clear
9:55 AM 19.4 °F - 17.6 °F 93% 29.99 in 6.0 mi Calm Calm - N/A   Clear
10:15 AM 21.2 °F - 19.4 °F 93% 29.99 in 5.0 mi Calm Calm - N/A   Clear
10:35 AM 23.0 °F - 19.4 °F 86% 29.98 in 6.0 mi Calm Calm - N/A   Clear
10:55 AM 24.8 °F - 21.2 °F 86% 29.98 in 6.0 mi Calm Calm - N/A   Clear
11:15 AM 24.8 °F - 23.0 °F 93% 29.97 in 6.0 mi Calm Calm - N/A   Clear
11:35 AM 26.6 °F - 23.0 °F 86% 29.96 in 6.0 mi Calm Calm - N/A   Clear
11:55 AM 28.4 °F - 24.8 °F 86% 29.94 in 7.0 mi Calm Calm - N/A   Clear
12:15 PM 30.2 °F - 24.8 °F 80% 29.93 in 7.0 mi Calm Calm - N/A   Clear
12:35 PM 32.0 °F 28.7 °F 26.6 °F 80% 29.92 in 8.0 mi North 3.5 mph - N/A   Mostly Cloudy
12:55 PM 32.0 °F - 26.6 °F 80% 29.92 in 8.0 mi Calm Calm - N/A   Mostly Cloudy
1:15 PM 33.8 °F 29.6 °F 26.6 °F 75% 29.91 in 8.0 mi NNE 4.6 mph - N/A   Partly Cloudy
1:35 PM 35.6 °F 31.7 °F 28.4 °F 75% 29.90 in 9.0 mi East 4.6 mph - N/A   Partly Cloudy
1:55 PM 35.6 °F - 28.4 °F 75% 29.91 in 9.0 mi Calm Calm - N/A   Scattered Clouds
2:15 PM 35.6 °F 30.7 °F 28.4 °F 75% 29.90 in 9.0 mi ESE 5.8 mph - N/A   Overcast
2:35 PM 35.6 °F - 28.4 °F 75% 29.90 in 9.0 mi Calm Calm - N/A   Overcast
2:55 PM 35.6 °F 30.7 °F 28.4 °F 75% 29.89 in 9.0 mi East 5.8 mph - N/A   Mostly Cloudy
3:15 PM 33.8 °F 29.6 °F 28.4 °F 81% 29.89 in 8.0 mi ESE 4.6 mph - N/A   Mostly Cloudy
3:35 PM 33.8 °F 29.6 °F 28.4 °F 81% 29.90 in 8.0 mi East 4.6 mph - N/A   Mostly Cloudy
3:55 PM 33.8 °F 28.6 °F 28.4 °F 81% 29.91 in 7.0 mi Variable 5.8 mph - N/A   Overcast
4:15 PM 33.8 °F 28.6 °F 28.4 °F 81% 29.92 in 7.0 mi East 5.8 mph - N/A   Overcast
4:35 PM 33.8 °F 28.6 °F 28.4 °F 81% 29.92 in 7.0 mi East 5.8 mph - N/A   Overcast
4:55 PM 33.8 °F 28.6 °F 28.4 °F 81% 29.92 in 7.0 mi ENE 5.8 mph - N/A   Overcast
5:15 PM 33.8 °F 27.0 °F 28.4 °F 81% 29.93 in 7.0 mi NE 8.1 mph - N/A   Overcast
5:35 PM 33.8 °F 28.6 °F 28.4 °F 81% 29.93 in 8.0 mi NE 5.8 mph - N/A   Overcast
5:55 PM 32.0 °F 25.6 °F 28.4 °F 87% 29.94 in 8.0 mi NE 6.9 mph - N/A   Overcast
6:15 PM 32.0 °F 25.6 °F 28.4 °F 87% 29.94 in 8.0 mi NE 6.9 mph - N/A   Overcast
6:35 PM 32.0 °F 24.2 °F 28.4 °F 87% 29.94 in 8.0 mi NNE 9.2 mph - N/A   Overcast
6:55 PM 32.0 °F 23.0 °F 28.4 °F 87% 29.95 in 8.0 mi NNE 11.5 mph - N/A   Overcast
7:15 PM 32.0 °F 22.1 °F 26.6 °F 80% 29.96 in 8.0 mi NNE 13.8 mph - N/A   Overcast
7:35 PM 30.2 °F 20.8 °F 26.6 °F 86% 29.96 in 8.0 mi NNE 11.5 mph - N/A   Overcast
7:55 PM 30.2 °F 19.8 °F 26.6 °F 86% 29.97 in 8.0 mi NNE 13.8 mph - N/A   Overcast
8:15 PM 30.2 °F 20.2 °F 26.6 °F 86% 29.98 in 8.0 mi NNE 12.7 mph 18.4 mph N/A   Overcast
8:35 PM 30.2 °F 20.2 °F 26.6 °F 86% 29.99 in 7.0 mi NNE 12.7 mph - N/A   Overcast
8:55 PM 30.2 °F 19.8 °F 26.6 °F 86% 29.99 in 7.0 mi NNE 13.8 mph - N/A   Overcast
9:15 PM 30.2 °F 20.2 °F 26.6 °F 86% 29.99 in 6.0 mi North 12.7 mph - N/A   Overcast
9:35 PM 28.4 °F 17.5 °F 24.8 °F 86% 29.99 in 6.0 mi North 13.8 mph - N/A   Overcast
9:55 PM 28.4 °F 18.5 °F 24.8 °F 86% 30.00 in 6.0 mi NNE 11.5 mph - N/A   Overcast
10:15 PM 28.4 °F 18.5 °F 24.8 °F 86% 30.00 in 7.0 mi NNE 11.5 mph 19.6 mph N/A   Overcast
10:35 PM 26.6 °F 14.7 °F 24.8 °F 93% 30.00 in 6.0 mi North 15.0 mph - N/A   Overcast
10:55 PM 26.6 °F 16.2 °F 23.0 °F 86% 30.01 in 6.0 mi North 11.5 mph - N/A   Overcast
11:15 PM 26.6 °F 15.2 °F 23.0 °F 86% 30.02 in 6.0 mi NNE 13.8 mph - N/A   Overcast
11:35 PM 26.6 °F 13.8 °F 23.0 °F 86% 30.02 in 6.0 mi NNE 17.3 mph - N/A   Overcast
11:55 PM 26.6 °F 14.7 °F 23.0 °F 86% 30.03 in 6.0 mi North 15.0 mph - N/A   Overcast